Regional Weather Roundup
Issued by NWS Goodland, KS

Home | Current Version | Previous Version | Graphics & Text | Print | Product List | Glossary On
Versions: 1 2 3 4 5 6 7 8 9 10 11 12 13 14 15 16 17 18 19 20 21 22 23 24 25 26 27 28 29 30 31 32 33 34 35 36 37 38 39 40 41 42 43 44 45 46 47 48 49 50
000
ASUS43 KGLD 251908
RWRGLD

GOODLAND FORECAST AREA HOURLY WEATHER ROUNDUP
NATIONAL WEATHER SERVICE GOODLAND KS
1200 PM MST SUN JAN 25 2015

...OFFICIAL OBSERVATIONS...

CITY           SKY/WX    TMP DP  RH WIND       PRES   REMARKS
GOODLAND KS    MOSUNNY   53  22  29 N28G37    30.10F
HILL CITY KS   SUNNY     50  25  37 N24G33    30.10S
IMPERIAL NEB   SUNNY     52  21  29 NW24G31   30.07F
MCCOOK NEB     SUNNY     50  21  32 NW25G32   30.09F
AKRON CO       CLOUDY    48  31  51 NW12      30.14F
BURLINGTON CO  MOSUNNY   50  29  44 N23G31    30.12F
LIMON CO       PTSUNNY   50  24  36 NW10      30.16F
$$

...UNOFFICIAL OBSERVATIONS...

CITY           SKY/WX    TMP DP  RH WIND       PRES   REMARKS
COLBY KS       SUNNY     52  30  43 NW20G26   30.10F
GOVE KS          N/A     51  32  48 MISG        N/A
NORTON KS      MOSUNNY   48  21  34 NW21G28   30.08S
SHARON SPRINGS   N/A     54  26  34 N24G32      N/A
KIT CARSON CO    N/A     51  29  43 MISG        N/A
YUMA CO          N/A     47  32  55 N17         N/A
$$


USA.gov is the U.S. government's official web portal to all federal, state and local government web resources and services.